This is the latest recevied weather packets stored in our database for station/object LRCT. If no packets are shown the sender has not sent any weather packets the latest 10 day(s).
| Time | Temp. | Humidity | Pressure | Rain* | Wind** | Luminosity | Snow |
|---|---|---|---|---|---|---|---|
| 1777867436 | 2.78° C | 81% | 1019 hPa | - | - | - | - |
| 1777866537 | 2.78° C | 75% | 1019 hPa | - | - | - | - |
| 1777842236 | 8.89° C | 54% | 1019 hPa | - | - | - | - |
| 1777841344 | 8.89° C | 54% | 1019 hPa | - | - | - | - |
| 1777839537 | 10° C | 50% | 1019 hPa | - | - | - | - |
| 1777821537 | 17.22° C | 32% | 1019 hPa | - | - | - | - |
| 1777817938 | 17.22° C | 30% | 1020 hPa | - | - | - | - |
| 1777810751 | 16.11° C | 31% | 1021 hPa | - | - | - | - |
| 1777809837 | 16.11° C | 31% | 1021 hPa | - | - | - | - |
| 1777801737 | 12.78° C | 36% | 1023 hPa | - | - | - | - |
| 1777800837 | 12.78° C | 36% | 1023 hPa | - | - | - | - |
| 1777799937 | 12.78° C | 36% | 1023 hPa | - | - | - | - |
| 1777798137 | 12.22° C | 47% | 1024 hPa | - | - | - | - |
| 1777797236 | 12.22° C | 47% | 1024 hPa | - | - | - | - |
| 1777796337 | 12.22° C | 47% | 1024 hPa | - | - | - | - |
| 1777795447 | 12.22° C | 47% | 1024 hPa | - | - | - | - |
| 1777794537 | 10° C | 58% | 1024 hPa | - | - | - | - |
| 1777793636 | 10° C | 58% | 1024 hPa | - | - | - | - |
| 1777792735 | 10° C | 58% | 1024 hPa | - | - | - | - |
| 1777791837 | 10° C | 58% | 1024 hPa | - | - | - | - |
| 1777790937 | 7.78° C | 66% | 1023 hPa | - | - | - | - |
| 1777790073 | 7.78° C | 66% | 1023 hPa | - | - | - | - |
| 1777789138 | 7.78° C | 66% | 1023 hPa | - | - | - | - |
| 1777788236 | 7.78° C | 66% | 1023 hPa | - | - | - | - |
| 1777787337 | 3.89° C | 75% | 1023 hPa | - | - | - | - |
* Rain since midnight (hover to see other rain measurements)
** Current wind speed in m/s (hover to see current wind gust speed)